EZS4221 LSZB-EBBR

Flight info

Callsign EZS4221
Flight time 0h 53m
Altitude 18000
Route KONOL Z59 LUMEL Z600 HR DCT EDOPI DCT GIVOR/N0384F170 DCT SORAL/N0379F160 DCT IBERA DCT LIMGO DCT DIK Y37 BATTY
Aircraft A320/M-SDE3FGHIRWY/LB1

Departure

Time 2026-04-30 07:36
Airport Bern Airport (LSZB)

Arrival

Time 2026-04-30 08:29
Airport Brussels Airport (EBBR)
Time Latitude Longitude Altitude Speed Heading
2026-04-30 07:35 47.11440 7.37974 10184 ft 294 kts 343°
2026-04-30 07:36 47.13403 7.36986 10747 ft 308 kts 343°
2026-04-30 07:36 47.15507 7.35928 10979 ft 331 kts 342°
2026-04-30 07:36 47.17760 7.34796 11214 ft 352 kts 342°
2026-04-30 07:36 47.20109 7.33611 11791 ft 360 kts 342°
2026-04-30 07:37 47.22484 7.32400 12512 ft 363 kts 342°
2026-04-30 07:37 47.24883 7.31175 13246 ft 366 kts 342°
2026-04-30 07:37 47.27296 7.29949 13956 ft 368 kts 343°
2026-04-30 07:37 47.29702 7.28615 14645 ft 372 kts 337°
2026-04-30 07:38 47.31943 7.26674 15279 ft 377 kts 326°
2026-04-30 07:38 47.33966 7.24161 15897 ft 382 kts 321°
2026-04-30 07:38 47.35960 7.21565 16523 ft 385 kts 321°
2026-04-30 07:38 47.37978 7.18944 17129 ft 387 kts 322°
2026-04-30 07:39 47.39948 7.16209 17707 ft 393 kts 315°
2026-04-30 07:39 47.41619 7.12977 18119 ft 400 kts 305°
2026-04-30 07:39 47.42988 7.09372 18223 ft 408 kts 302°
2026-04-30 07:39 47.44368 7.05605 18232 ft 425 kts 301°
2026-04-30 07:40 47.45787 7.01715 18229 ft 434 kts 301°
2026-04-30 07:40 47.47222 6.97777 18227 ft 436 kts 301°
2026-04-30 07:40 47.48664 6.93830 18218 ft 437 kts 301°
2026-04-30 07:40 47.50111 6.89874 18225 ft 437 kts 302°
2026-04-30 07:41 47.51556 6.85922 18219 ft 438 kts 301°
2026-04-30 07:41 47.53008 6.81953 18221 ft 438 kts 302°
2026-04-30 07:41 47.54705 6.78259 18217 ft 433 kts 313°
2026-04-30 07:41 47.56805 6.75092 18221 ft 429 kts 323°
2026-04-30 07:42 47.59227 6.72547 18224 ft 425 kts 333°
2026-04-30 07:42 47.61883 6.70702 18219 ft 421 kts 343°
2026-04-30 07:42 47.64681 6.69436 18224 ft 420 kts 346°
2026-04-30 07:42 47.67478 6.68206 18226 ft 420 kts 346°
2026-04-30 07:43 47.70281 6.66957 18228 ft 420 kts 346°
2026-04-30 07:43 47.73081 6.65697 18227 ft 420 kts 346°
2026-04-30 07:43 47.75878 6.64424 18227 ft 421 kts 346°
2026-04-30 07:43 47.78678 6.63145 18226 ft 421 kts 346°
2026-04-30 07:44 47.81476 6.61869 18226 ft 421 kts 346°
2026-04-30 07:44 47.84281 6.60599 18224 ft 421 kts 346°
2026-04-30 07:44 47.87087 6.59330 18223 ft 421 kts 346°
2026-04-30 07:44 47.89892 6.58059 18225 ft 422 kts 346°
2026-04-30 07:45 47.92710 6.56867 18226 ft 420 kts 351°
2026-04-30 07:45 47.95585 6.56143 18231 ft 419 kts 354°
2026-04-30 07:45 47.98466 6.55470 18230 ft 419 kts 354°
2026-04-30 07:45 48.01342 6.54789 18235 ft 419 kts 354°
2026-04-30 07:46 48.04223 6.54097 18237 ft 419 kts 354°
2026-04-30 07:46 48.07106 6.53402 18237 ft 419 kts 354°
2026-04-30 07:46 48.09984 6.52707 18237 ft 420 kts 354°
2026-04-30 07:46 48.12870 6.52013 18242 ft 420 kts 354°
2026-04-30 07:47 48.15756 6.51327 18241 ft 420 kts 354°
2026-04-30 07:47 48.18643 6.50638 18243 ft 420 kts 354°
2026-04-30 07:47 48.21528 6.49942 18247 ft 420 kts 354°
2026-04-30 07:47 48.24414 6.49238 18253 ft 420 kts 354°
2026-04-30 07:48 48.27295 6.48534 18254 ft 420 kts 354°
2026-04-30 07:48 48.30186 6.47833 18251 ft 420 kts 354°
2026-04-30 07:48 48.33069 6.47133 18252 ft 420 kts 354°
2026-04-30 07:48 48.35946 6.46435 18256 ft 420 kts 354°
2026-04-30 07:49 48.38831 6.45736 18260 ft 420 kts 354°
2026-04-30 07:49 48.41715 6.45039 18264 ft 420 kts 354°
2026-04-30 07:49 48.44601 6.44339 18267 ft 419 kts 354°
2026-04-30 07:49 48.47484 6.43635 18264 ft 420 kts 354°
2026-04-30 07:50 48.50364 6.42932 18268 ft 420 kts 354°
2026-04-30 07:50 48.53248 6.42226 18272 ft 419 kts 354°
2026-04-30 07:50 48.56123 6.41525 18273 ft 419 kts 354°
2026-04-30 07:50 48.59005 6.40825 18274 ft 419 kts 354°
2026-04-30 07:51 48.61884 6.40123 18273 ft 419 kts 354°
2026-04-30 07:51 48.64767 6.39447 18275 ft 418 kts 356°
2026-04-30 07:51 48.67661 6.39314 18279 ft 415 kts
2026-04-30 07:51 48.70539 6.39608 18282 ft 414 kts
2026-04-30 07:52 48.73414 6.39903 18282 ft 415 kts
2026-04-30 07:52 48.76295 6.40195 18282 ft 415 kts
2026-04-30 07:52 48.79171 6.40486 18289 ft 415 kts
2026-04-30 07:52 48.82056 6.40778 18291 ft 415 kts
2026-04-30 07:53 48.84932 6.41070 18295 ft 415 kts
2026-04-30 07:53 48.87815 6.41361 18299 ft 415 kts
2026-04-30 07:53 48.90660 6.41648 18300 ft 415 kts
2026-04-30 07:53 48.93548 6.41940 18304 ft 416 kts
2026-04-30 07:54 48.96435 6.42234 18309 ft 416 kts
2026-04-30 07:54 48.99360 6.42534 18312 ft 416 kts
2026-04-30 07:54 49.02244 6.42832 18314 ft 416 kts
2026-04-30 07:54 49.05128 6.43133 18317 ft 416 kts
2026-04-30 07:55 49.08017 6.43433 18318 ft 416 kts
2026-04-30 07:55 49.10917 6.43485 18316 ft 418 kts 359°
2026-04-30 07:55 49.13801 6.42792 18315 ft 422 kts 349°
2026-04-30 07:55 49.16605 6.41637 18318 ft 423 kts 348°
2026-04-30 07:56 49.19481 6.40444 18320 ft 423 kts 348°
2026-04-30 07:56 49.22288 6.39287 18321 ft 423 kts 348°
2026-04-30 07:56 49.25135 6.38123 18321 ft 423 kts 348°
2026-04-30 07:56 49.27983 6.36959 18321 ft 424 kts 348°
2026-04-30 07:57 49.30828 6.35792 18326 ft 424 kts 348°
2026-04-30 07:57 49.33681 6.34614 18330 ft 424 kts 348°
2026-04-30 07:57 49.36526 6.33437 18327 ft 424 kts 348°
2026-04-30 07:57 49.39380 6.32255 18328 ft 425 kts 348°
2026-04-30 07:58 49.42231 6.31074 18331 ft 425 kts 348°
2026-04-30 07:58 49.45082 6.29894 18331 ft 425 kts 348°
2026-04-30 07:58 49.47941 6.28710 18338 ft 425 kts 348°
2026-04-30 07:58 49.50825 6.27809 18341 ft 422 kts 356°
2026-04-30 07:59 49.53741 6.27629 18344 ft 418 kts
2026-04-30 07:59 49.56682 6.27786 18344 ft 418 kts
2026-04-30 07:59 49.59596 6.27943 18344 ft 418 kts
2026-04-30 08:00 49.65353 6.26875 18337 ft 426 kts 346°
2026-04-30 08:00 49.68119 6.25201 18348 ft 429 kts 339°
2026-04-30 08:00 49.70852 6.23338 18342 ft 429 kts 339°
2026-04-30 08:00 49.73584 6.21487 18338 ft 429 kts 340°
2026-04-30 08:01 49.76319 6.19639 18341 ft 429 kts 340°
2026-04-30 08:01 49.79060 6.17787 18346 ft 430 kts 339°
2026-04-30 08:01 49.81799 6.15931 18347 ft 430 kts 339°
2026-04-30 08:01 49.84539 6.14072 18345 ft 429 kts 340°
2026-04-30 08:02 49.90229 6.11535 18343 ft 425 kts 351°
2026-04-30 08:02 49.93113 6.10529 18344 ft 425 kts 351°
2026-04-30 08:03 49.98894 6.08496 18342 ft 425 kts 350°
2026-04-30 08:03 50.04661 6.06456 18341 ft 425 kts 350°
2026-04-30 08:03 50.07544 6.05437 18345 ft 425 kts 350°
2026-04-30 08:04 50.10431 6.04416 18342 ft 425 kts 350°
2026-04-30 08:04 50.13320 6.03391 18346 ft 426 kts 350°
2026-04-30 08:04 50.16209 6.02360 18349 ft 425 kts 350°
2026-04-30 08:04 50.19092 6.01332 18347 ft 425 kts 350°
2026-04-30 08:05 50.21978 6.00305 18348 ft 425 kts 350°
2026-04-30 08:05 50.24858 5.99281 18349 ft 425 kts 350°
2026-04-30 08:05 50.27783 5.98237 18348 ft 425 kts 350°
2026-04-30 08:05 50.30630 5.97222 18349 ft 425 kts 350°
2026-04-30 08:06 50.33518 5.96194 18348 ft 425 kts 350°
2026-04-30 08:06 50.36403 5.95165 18350 ft 425 kts 350°
2026-04-30 08:06 50.39284 5.94136 18350 ft 425 kts 350°
2026-04-30 08:06 50.42163 5.93105 18352 ft 425 kts 350°
2026-04-30 08:07 50.45050 5.92066 18352 ft 425 kts 350°
2026-04-30 08:07 50.47936 5.91025 18354 ft 425 kts 350°
2026-04-30 08:07 50.50821 5.89985 18357 ft 425 kts 350°
2026-04-30 08:07 50.53700 5.88950 18356 ft 425 kts 350°
2026-04-30 08:08 50.56587 5.87911 18357 ft 425 kts 350°
2026-04-30 08:08 50.59455 5.86760 18354 ft 428 kts 345°
2026-04-30 08:08 50.62177 5.84834 18359 ft 432 kts 333°
2026-04-30 08:08 50.64631 5.82051 18361 ft 437 kts 321°
2026-04-30 08:09 50.66706 5.78518 18360 ft 442 kts 309°
2026-04-30 08:09 50.68313 5.74374 18361 ft 445 kts 299°
2026-04-30 08:09 50.69712 5.70011 18358 ft 446 kts 299°
2026-04-30 08:09 50.71109 5.65647 18355 ft 446 kts 299°
2026-04-30 08:10 50.72509 5.61276 18354 ft 446 kts 299°
2026-04-30 08:10 50.73908 5.56904 18354 ft 447 kts 299°
2026-04-30 08:10 50.75308 5.52524 18355 ft 447 kts 299°
2026-04-30 08:10 50.76704 5.48145 18355 ft 447 kts 299°
2026-04-30 08:11 50.78103 5.43750 18354 ft 447 kts 299°
2026-04-30 08:11 50.79495 5.39364 18357 ft 447 kts 299°
2026-04-30 08:11 50.80877 5.34994 18350 ft 436 kts 299°
2026-04-30 08:11 50.82196 5.30806 18356 ft 418 kts 299°
2026-04-30 08:12 50.83485 5.26718 18357 ft 413 kts 299°
2026-04-30 08:12 50.84769 5.22656 18357 ft 412 kts 299°
2026-04-30 08:12 50.86046 5.18607 18357 ft 412 kts 299°
2026-04-30 08:12 50.87326 5.14544 18353 ft 412 kts 299°
2026-04-30 08:13 50.88599 5.10494 18349 ft 412 kts 299°
2026-04-30 08:13 50.89869 5.06425 18358 ft 412 kts 299°
2026-04-30 08:13 50.91141 5.02351 18358 ft 412 kts 299°
2026-04-30 08:13 50.92411 4.98282 18357 ft 412 kts 298°
2026-04-30 08:14 50.93681 4.94210 18355 ft 412 kts 299°
2026-04-30 08:14 50.94949 4.90144 18354 ft 412 kts 299°
2026-04-30 08:14 50.95810 4.87386 18354 ft 412 kts 299°
2026-04-30 08:14 50.97492 4.81988 18352 ft 413 kts 299°
2026-04-30 08:15 50.98366 4.79192 18338 ft 424 kts 298°
2026-04-30 08:15 50.99690 4.74963 17821 ft 427 kts 298°
2026-04-30 08:15 51.01009 4.70754 17267 ft 425 kts 298°
2026-04-30 08:15 51.02322 4.66569 16715 ft 422 kts 298°
2026-04-30 08:16 51.03629 4.62408 16160 ft 420 kts 298°
2026-04-30 08:16 51.04935 4.58270 15616 ft 417 kts 298°
2026-04-30 08:16 51.06230 4.54165 15067 ft 415 kts 298°
2026-04-30 08:16 51.07202 4.49871 14502 ft 414 kts 282°
2026-04-30 08:17 51.07296 4.45323 13963 ft 412 kts 263°
2026-04-30 08:17 51.06826 4.40839 13410 ft 410 kts 254°
2026-04-30 08:17 51.05674 4.36761 12861 ft 403 kts 234°
2026-04-30 08:17 51.04015 4.33193 12310 ft 401 kts 234°
2026-04-30 08:18 51.02844 4.29175 11756 ft 401 kts 251°
2026-04-30 08:18 51.02042 4.24954 11211 ft 399 kts 252°
2026-04-30 08:18 51.01265 4.20739 10643 ft 395 kts 252°
2026-04-30 08:18 51.00499 4.16565 10104 ft 390 kts 252°
2026-04-30 08:19 50.99753 4.12450 9555 ft 386 kts 252°
2026-04-30 08:19 50.99021 4.08382 9026 ft 381 kts 252°
2026-04-30 08:19 50.98303 4.04381 8602 ft 373 kts 252°
2026-04-30 08:19 50.97613 4.00512 8177 ft 365 kts 252°
2026-04-30 08:20 50.96944 3.96722 7751 ft 347 kts 252°
2026-04-30 08:20 50.96269 3.93106 7364 ft 326 kts 245°
2026-04-30 08:20 50.95182 3.90158 7233 ft 298 kts 226°
2026-04-30 08:20 50.93699 3.87992 7105 ft 286 kts 208°
2026-04-30 08:21 50.91931 3.86660 6977 ft 278 kts 191°
2026-04-30 08:21 50.90054 3.86217 6852 ft 270 kts 175°
2026-04-30 08:21 50.88226 3.86602 6723 ft 260 kts 160°
2026-04-30 08:21 50.86625 3.87667 6597 ft 243 kts 145°
2026-04-30 08:22 50.85320 3.89220 6456 ft 227 kts 133°
2026-04-30 08:22 50.84347 3.91078 6346 ft 214 kts 120°
2026-04-30 08:22 50.83690 3.93153 6226 ft 210 kts 109°
2026-04-30 08:22 50.83298 3.95370 6091 ft 209 kts 104°
2026-04-30 08:23 50.82940 3.97594 5965 ft 208 kts 104°
2026-04-30 08:23 50.82579 3.99805 5840 ft 207 kts 104°
2026-04-30 08:23 50.82219 4.02010 5714 ft 208 kts 104°
2026-04-30 08:23 50.81856 4.04218 5613 ft 207 kts 104°
2026-04-30 08:24 50.81495 4.06412 5486 ft 206 kts 105°
2026-04-30 08:24 50.81136 4.08597 5310 ft 205 kts 104°
2026-04-30 08:24 50.80782 4.10753 5138 ft 204 kts 104°
2026-04-30 08:24 50.80658 4.12994 4785 ft 209 kts 85°
2026-04-30 08:25 50.81079 4.15179 4359 ft 208 kts 68°
2026-04-30 08:25 50.81689 4.17228 4061 ft 204 kts 70°
2026-04-30 08:25 50.82281 4.19268 3773 ft 204 kts 70°
2026-04-30 08:25 50.82870 4.21306 3474 ft 203 kts 70°
2026-04-30 08:26 50.83452 4.23333 3198 ft 204 kts 70°
2026-04-30 08:26 50.84034 4.25368 2913 ft 203 kts 70°
2026-04-30 08:26 50.84618 4.27390 2647 ft 202 kts 70°
2026-04-30 08:26 50.85205 4.29411 2378 ft 203 kts 68°
2026-04-30 08:27 50.85798 4.31437 2106 ft 203 kts 68°
2026-04-30 08:27 50.86392 4.33476 1834 ft 204 kts 68°
2026-04-30 08:27 50.86987 4.35528 1562 ft 205 kts 67°
2026-04-30 08:27 50.87579 4.37576 1297 ft 202 kts 66°
2026-04-30 08:28 50.88141 4.39515 1054 ft 183 kts 67°
2026-04-30 08:28 50.88642 4.41243 798 ft 163 kts 66°
2026-04-30 08:28 50.89086 4.42768 615 ft 145 kts 67°
2026-04-30 08:28 50.89493 4.44161 420 ft 136 kts 67°
2026-04-30 08:29 50.89885 4.45521 269 ft 135 kts 66°
2026-04-30 08:29 50.90280 4.46867 139 ft 134 kts 66°
2026-04-30 08:29 50.90593 4.47968 122 ft 81 kts 65°
2026-04-30 08:29 50.90668 4.48284 122 ft 4 kts 128°
2026-04-30 08:30 50.90654 4.48313 119 ft 3 kts 127°
2026-04-30 08:30 50.90618 4.48397 117 ft 14 kts 122°
2026-04-30 08:30 50.90565 4.48539 118 ft 16 kts 123°
2026-04-30 08:30 50.90480 4.48508 116 ft 14 kts 234°
2026-04-30 08:31 50.90416 4.48451 121 ft 10 kts 163°
2026-04-30 08:31 50.90395 4.48468 121 ft 0 kts 156°
2026-04-30 08:31 50.90381 4.48479 121 ft 7 kts 155°
2026-04-30 08:31 50.90377 4.48481 121 ft 0 kts 155°